THY5RD LTFM-LEBL

Flight info

Callsign THY5RD
Flight time 3h 27m
Altitude 34000
Route BARPE1D/35L BARPE UG12 GOLDO DCT SUTIS DCT TALAS DCT ORRIH DCT DIRES DCT PIKEL DCT BAR DCT EPIKU DCT GINOX DCT KIFMI DCT ELVOP DCT MUREN M601 VERSO
Aircraft A321/M-SDE3FGHIRWY/LB1

Departure

Time 2026-05-07 16:55
Airport İstanbul Airport (LTFM)

Arrival

Time 2026-05-07 20:23
Airport Josep Tarradellas Barcelona-El Prat Airport (LEBL)
Time Latitude Longitude Altitude Speed Heading
2026-05-07 16:11 41.26121 28.73644 333 ft 0 kts 107°
2026-05-07 16:46 41.26126 28.73626 333 ft 2 kts 107°
2026-05-07 16:46 41.26130 28.73607 333 ft 2 kts 107°
2026-05-07 16:46 41.26134 28.73589 333 ft 2 kts 107°
2026-05-07 16:46 41.26139 28.73569 333 ft 2 kts 107°
2026-05-07 16:47 41.26141 28.73558 333 ft 2 kts 107°
2026-05-07 16:47 41.26143 28.73538 333 ft 2 kts 77°
2026-05-07 16:47 41.26137 28.73519 333 ft 2 kts 54°
2026-05-07 16:47 41.26126 28.73505 333 ft 2 kts 31°
2026-05-07 16:48 41.26118 28.73500 333 ft 1 kts 17°
2026-05-07 16:48 41.26112 28.73498 333 ft 0 kts 16°
2026-05-07 16:51 41.26132 28.73506 333 ft 3 kts 17°
2026-05-07 16:51 41.26161 28.73517 333 ft 4 kts 12°
2026-05-07 16:51 41.26195 28.73512 333 ft 5 kts 335°
2026-05-07 16:51 41.26221 28.73473 333 ft 6 kts 290°
2026-05-07 16:52 41.26222 28.73417 333 ft 6 kts 256°
2026-05-07 16:52 41.26210 28.73352 333 ft 8 kts 264°
2026-05-07 16:52 41.26207 28.73273 333 ft 9 kts 268°
2026-05-07 16:52 41.26207 28.73186 333 ft 9 kts 271°
2026-05-07 16:53 41.26206 28.73094 333 ft 10 kts 269°
2026-05-07 16:53 41.26207 28.72999 333 ft 10 kts 271°
2026-05-07 16:53 41.26205 28.72899 333 ft 10 kts 268°
2026-05-07 16:53 41.26204 28.72795 333 ft 11 kts 269°
2026-05-07 16:54 41.26203 28.72690 333 ft 11 kts 268°
2026-05-07 16:54 41.26203 28.72581 333 ft 11 kts 280°
2026-05-07 16:54 41.26245 28.72526 333 ft 9 kts 352°
2026-05-07 16:54 41.26313 28.72523 333 ft 11 kts 359°
2026-05-07 16:55 41.26591 28.72513 333 ft 77 kts 358°
2026-05-07 16:55 41.27383 28.72499 333 ft 146 kts 359°
2026-05-07 16:55 41.28562 28.72480 506 ft 184 kts 360°
2026-05-07 16:55 41.29866 28.72480 1155 ft 189 kts 359°
2026-05-07 16:56 41.31130 28.72503 1991 ft 184 kts 357°
2026-05-07 16:56 41.32430 28.72500 2593 ft 194 kts 356°
2026-05-07 16:56 41.34795 28.70825 3428 ft 223 kts 289°
2026-05-07 16:57 41.34860 28.68703 3931 ft 242 kts 256°
2026-05-07 16:57 41.34338 28.66549 4538 ft 251 kts 252°
2026-05-07 16:57 41.33770 28.64301 4995 ft 259 kts 254°
2026-05-07 16:57 41.33246 28.62029 5570 ft 262 kts 255°
2026-05-07 16:58 41.32748 28.59679 6167 ft 264 kts 256°
2026-05-07 16:58 41.32278 28.57324 6741 ft 266 kts 257°
2026-05-07 16:58 41.31818 28.54923 7312 ft 269 kts 257°
2026-05-07 16:58 41.31370 28.52526 7907 ft 272 kts 258°
2026-05-07 16:59 41.30915 28.50052 8452 ft 276 kts 258°
2026-05-07 16:59 41.30465 28.47572 8962 ft 279 kts 258°
2026-05-07 16:59 41.30013 28.45080 9465 ft 282 kts 258°
2026-05-07 16:59 41.29551 28.42514 9988 ft 285 kts 258°
2026-05-07 17:00 41.29091 28.39963 10413 ft 292 kts 258°
2026-05-07 17:00 41.28610 28.37282 10647 ft 305 kts 258°
2026-05-07 17:00 41.28104 28.34468 10886 ft 317 kts 257°
2026-05-07 17:00 41.27586 28.31595 11112 ft 330 kts 257°
2026-05-07 17:01 41.27040 28.28572 11302 ft 342 kts 257°
2026-05-07 17:01 41.26476 28.25456 11519 ft 354 kts 257°
2026-05-07 17:01 41.25889 28.22217 11734 ft 365 kts 257°
2026-05-07 17:01 41.25288 28.18910 11989 ft 375 kts 257°
2026-05-07 17:02 41.24676 28.15544 12380 ft 379 kts 257°
2026-05-07 17:02 41.24046 28.12096 12861 ft 381 kts 257°
2026-05-07 17:02 41.23426 28.08704 13303 ft 383 kts 258°
2026-05-07 17:02 41.22793 28.05247 13748 ft 385 kts 258°
2026-05-07 17:03 41.22163 28.01802 14198 ft 388 kts 258°
2026-05-07 17:03 41.21523 27.98316 14632 ft 390 kts 258°
2026-05-07 17:03 41.20884 27.94834 15066 ft 392 kts 258°
2026-05-07 17:03 41.20232 27.91294 15483 ft 395 kts 257°
2026-05-07 17:04 41.19579 27.87758 15894 ft 397 kts 258°
2026-05-07 17:04 41.18915 27.84171 16319 ft 399 kts 258°
2026-05-07 17:04 41.18257 27.80622 16725 ft 401 kts 258°
2026-05-07 17:04 41.17589 27.77025 17122 ft 404 kts 258°
2026-05-07 17:05 41.16913 27.73389 17494 ft 406 kts 258°
2026-05-07 17:05 41.16235 27.69747 17893 ft 408 kts 258°
2026-05-07 17:05 41.15558 27.66118 18274 ft 410 kts 258°
2026-05-07 17:05 41.14875 27.62462 18657 ft 412 kts 258°
2026-05-07 17:06 41.14182 27.58758 19014 ft 414 kts 258°
2026-05-07 17:06 41.13484 27.55043 19367 ft 416 kts 258°
2026-05-07 17:06 41.12792 27.51358 19683 ft 418 kts 258°
2026-05-07 17:06 41.12083 27.47596 19989 ft 421 kts 258°
2026-05-07 17:07 41.11372 27.43832 20321 ft 423 kts 258°
2026-05-07 17:07 41.10656 27.40050 20644 ft 425 kts 258°
2026-05-07 17:07 41.09936 27.36250 20947 ft 427 kts 258°
2026-05-07 17:07 41.09211 27.32435 21258 ft 428 kts 258°
2026-05-07 17:08 41.08483 27.28614 21560 ft 430 kts 258°
2026-05-07 17:08 41.07751 27.24774 21853 ft 432 kts 257°
2026-05-07 17:08 41.07024 27.20970 22138 ft 433 kts 257°
2026-05-07 17:08 41.06279 27.17081 22417 ft 435 kts 258°
2026-05-07 17:09 41.05537 27.13213 22685 ft 437 kts 257°
2026-05-07 17:09 41.04788 27.09315 22948 ft 439 kts 258°
2026-05-07 17:09 41.04030 27.05377 23212 ft 441 kts 258°
2026-05-07 17:09 41.03273 27.01461 23475 ft 442 kts 258°
2026-05-07 17:10 41.02511 26.97513 23743 ft 444 kts 258°
2026-05-07 17:10 41.01752 26.93585 24005 ft 445 kts 258°
2026-05-07 17:10 41.00978 26.89595 24271 ft 446 kts 258°
2026-05-07 17:10 41.00211 26.85646 24527 ft 447 kts 257°
2026-05-07 17:11 40.99435 26.81660 24791 ft 448 kts 257°
2026-05-07 17:11 40.98654 26.77660 25042 ft 449 kts 257°
2026-05-07 17:11 40.97877 26.73691 25283 ft 450 kts 257°
2026-05-07 17:11 40.97090 26.69674 25518 ft 450 kts 257°
2026-05-07 17:12 40.96308 26.65693 25833 ft 449 kts 257°
2026-05-07 17:12 40.95528 26.61732 26196 ft 447 kts 257°
2026-05-07 17:12 40.94745 26.57758 26530 ft 445 kts 257°
2026-05-07 17:12 40.93964 26.53811 26828 ft 445 kts 257°
2026-05-07 17:13 40.93182 26.49864 27141 ft 443 kts 257°
2026-05-07 17:13 40.92406 26.45949 27456 ft 442 kts 257°
2026-05-07 17:13 40.91637 26.42084 27751 ft 440 kts 257°
2026-05-07 17:13 40.90860 26.38186 28040 ft 439 kts 257°
2026-05-07 17:14 40.90073 26.34249 28336 ft 438 kts 256°
2026-05-07 17:14 40.89302 26.30390 28614 ft 437 kts 256°
2026-05-07 17:14 40.88566 26.26528 28923 ft 434 kts 258°
2026-05-07 17:14 40.87977 26.22638 29261 ft 431 kts 262°
2026-05-07 17:15 40.87888 26.18677 29443 ft 430 kts 275°
2026-05-07 17:15 40.88155 26.14782 29697 ft 429 kts 276°
2026-05-07 17:15 40.88435 26.10875 29923 ft 429 kts 276°
2026-05-07 17:15 40.88707 26.06990 30120 ft 429 kts 275°
2026-05-07 17:16 40.88973 26.03071 30334 ft 429 kts 275°
2026-05-07 17:16 40.89231 25.99168 30560 ft 428 kts 275°
2026-05-07 17:16 40.89484 25.95262 30793 ft 427 kts 275°
2026-05-07 17:16 40.89732 25.91372 31029 ft 426 kts 275°
2026-05-07 17:17 40.89977 25.87468 31256 ft 425 kts 275°
2026-05-07 17:17 40.90218 25.83581 31487 ft 423 kts 275°
2026-05-07 17:17 40.90455 25.79733 31709 ft 422 kts 275°
2026-05-07 17:17 40.90689 25.75913 31925 ft 421 kts 274°
2026-05-07 17:18 40.90924 25.72047 32136 ft 420 kts 274°
2026-05-07 17:18 40.91153 25.68251 32313 ft 419 kts 275°
2026-05-07 17:18 40.91387 25.64378 32474 ft 419 kts 274°
2026-05-07 17:18 40.91615 25.60554 32564 ft 421 kts 274°
2026-05-07 17:19 40.91843 25.56727 32683 ft 421 kts 274°
2026-05-07 17:19 40.92071 25.52861 32815 ft 421 kts 274°
2026-05-07 17:19 40.92298 25.49005 32945 ft 421 kts 274°
2026-05-07 17:19 40.92522 25.45160 33069 ft 421 kts 274°
2026-05-07 17:20 40.92746 25.41324 33222 ft 421 kts 274°
2026-05-07 17:20 40.92968 25.37465 33343 ft 421 kts 274°
2026-05-07 17:20 40.93187 25.33628 33499 ft 420 kts 274°
2026-05-07 17:20 40.93407 25.29770 33607 ft 421 kts 274°
2026-05-07 17:21 40.93843 25.22083 33813 ft 420 kts 274°
2026-05-07 17:21 40.94059 25.18229 33956 ft 419 kts 274°
2026-05-07 17:21 40.94272 25.14416 34076 ft 419 kts 274°
2026-05-07 17:22 40.94697 25.06733 34083 ft 421 kts 274°
2026-05-07 17:22 40.95120 24.98993 34090 ft 422 kts 274°
2026-05-07 17:23 40.95531 24.91318 34075 ft 422 kts 274°
2026-05-07 17:23 40.95942 24.83600 34056 ft 420 kts 274°
2026-05-07 17:24 40.96346 24.75939 34079 ft 417 kts 274°
2026-05-07 17:24 40.96744 24.68285 34076 ft 417 kts 274°
2026-05-07 17:25 40.97134 24.60648 34081 ft 416 kts 274°
2026-05-07 17:25 40.97517 24.53090 34073 ft 413 kts 274°
2026-05-07 17:26 40.97894 24.45500 34079 ft 412 kts 274°
2026-05-07 17:26 40.98264 24.37971 34063 ft 411 kts 275°
2026-05-07 17:27 40.98627 24.30489 34061 ft 409 kts 274°
2026-05-07 17:27 40.98990 24.22964 34050 ft 409 kts 275°
2026-05-07 17:28 40.99344 24.15507 34070 ft 407 kts 275°
2026-05-07 17:28 40.99689 24.08051 34079 ft 405 kts 275°
2026-05-07 17:29 41.00032 24.00610 34082 ft 405 kts 275°
2026-05-07 17:29 41.00371 23.93174 34085 ft 406 kts 275°
2026-05-07 17:30 41.00699 23.85805 34086 ft 402 kts 275°
2026-05-07 17:30 41.01024 23.78450 34085 ft 400 kts 275°
2026-05-07 17:31 41.01343 23.71110 34066 ft 398 kts 275°
2026-05-07 17:31 41.01654 23.63813 34074 ft 398 kts 275°
2026-05-07 17:32 41.01962 23.56498 34077 ft 398 kts 275°
2026-05-07 17:32 41.02267 23.49207 34076 ft 396 kts 275°
2026-05-07 17:33 41.02558 23.41953 34078 ft 396 kts 275°
2026-05-07 17:33 41.02851 23.34744 34091 ft 393 kts 276°
2026-05-07 17:34 41.03136 23.27504 34078 ft 392 kts 276°
2026-05-07 17:34 41.03418 23.20341 34094 ft 391 kts 275°
2026-05-07 17:35 41.03694 23.13196 34098 ft 388 kts 275°
2026-05-07 17:35 41.03960 23.06080 34081 ft 387 kts 276°
2026-05-07 17:36 41.04229 22.98975 34085 ft 386 kts 275°
2026-05-07 17:36 41.04485 22.91874 34068 ft 386 kts 276°
2026-05-07 17:37 41.04736 22.84837 34093 ft 382 kts 275°
2026-05-07 17:37 41.04985 22.77830 34073 ft 384 kts 275°
2026-05-07 17:38 41.05228 22.70832 34071 ft 382 kts 276°
2026-05-07 17:38 41.05463 22.63817 34076 ft 381 kts 276°
2026-05-07 17:39 41.05701 22.56855 34073 ft 378 kts 276°
2026-05-07 17:39 41.05927 22.49894 34087 ft 377 kts 276°
2026-05-07 17:40 41.06145 22.43017 34077 ft 377 kts 277°
2026-05-07 17:40 41.06367 22.36123 34113 ft 373 kts 277°
2026-05-07 17:41 41.06578 22.29241 34119 ft 375 kts 276°
2026-05-07 17:41 41.06787 22.22402 34112 ft 372 kts 276°
2026-05-07 17:42 41.06993 22.15567 34106 ft 370 kts 275°
2026-05-07 17:42 41.07188 22.08783 34124 ft 368 kts 276°
2026-05-07 17:43 41.07382 22.02009 34112 ft 369 kts 276°
2026-05-07 17:43 41.07571 21.95199 34096 ft 368 kts 275°
2026-05-07 17:44 41.07814 21.88524 34116 ft 365 kts 278°
2026-05-07 17:44 41.07965 21.81736 34138 ft 369 kts 275°
2026-05-07 17:45 41.07972 21.74952 34130 ft 369 kts 274°
2026-05-07 17:45 41.07975 21.68171 34136 ft 368 kts 275°
2026-05-07 17:46 41.07978 21.61433 34138 ft 368 kts 275°
2026-05-07 17:46 41.07986 21.54683 34125 ft 366 kts 274°
2026-05-07 17:47 41.07984 21.47928 34118 ft 368 kts 274°
2026-05-07 17:47 41.07987 21.41172 34124 ft 368 kts 274°
2026-05-07 17:48 41.07978 21.34381 34115 ft 369 kts 274°
2026-05-07 17:48 41.07968 21.27614 34123 ft 367 kts 274°
2026-05-07 17:49 41.07959 21.20842 34126 ft 369 kts 274°
2026-05-07 17:49 41.07948 21.14072 34138 ft 368 kts 274°
2026-05-07 17:50 41.07925 21.07330 34131 ft 368 kts 274°
2026-05-07 17:50 41.07904 21.00578 34132 ft 367 kts 273°
2026-05-07 17:51 41.07867 20.93824 34128 ft 367 kts 274°
2026-05-07 17:51 41.07844 20.87091 34115 ft 367 kts 275°
2026-05-07 17:52 41.07809 20.80309 34103 ft 368 kts 274°
2026-05-07 17:52 41.07768 20.73599 34103 ft 368 kts 274°
2026-05-07 17:53 41.07726 20.66844 34107 ft 366 kts 272°
2026-05-07 17:53 41.07678 20.60113 34105 ft 367 kts 273°
2026-05-07 17:54 41.07626 20.53355 34113 ft 366 kts 273°
2026-05-07 17:54 41.07570 20.46644 34107 ft 366 kts 273°
2026-05-07 17:55 41.07517 20.39895 34117 ft 367 kts 273°
2026-05-07 17:55 41.07449 20.33153 34119 ft 367 kts 272°
2026-05-07 17:56 41.07383 20.26431 34113 ft 366 kts 273°
2026-05-07 17:56 41.07312 20.19727 34111 ft 365 kts 272°
2026-05-07 17:57 41.07251 20.14141 34094 ft 365 kts 272°
2026-05-07 17:57 41.07159 20.06343 34078 ft 364 kts 271°
2026-05-07 17:58 41.07079 19.99636 34061 ft 365 kts 272°
2026-05-07 17:58 41.06993 19.92923 34052 ft 364 kts 272°
2026-05-07 17:59 41.06900 19.86245 34054 ft 365 kts 271°
2026-05-07 17:59 41.06811 19.79540 34059 ft 364 kts 271°
2026-05-07 18:00 41.06712 19.72897 34059 ft 363 kts 270°
2026-05-07 18:00 41.06605 19.66223 34045 ft 363 kts 271°
2026-05-07 18:01 41.06504 19.59570 34046 ft 361 kts 270°
2026-05-07 18:01 41.06392 19.52933 34053 ft 361 kts 271°
2026-05-07 18:02 41.06223 19.43024 34054 ft 360 kts 270°
2026-05-07 18:03 41.06105 19.36397 34050 ft 360 kts 270°
2026-05-07 18:03 41.05983 19.29798 34049 ft 359 kts 270°
2026-05-07 18:04 41.05861 19.23178 34053 ft 357 kts 270°
2026-05-07 18:04 41.06019 19.16638 34047 ft 357 kts 274°
2026-05-07 18:05 41.06461 19.10089 34056 ft 356 kts 274°
2026-05-07 18:05 41.06908 19.03574 34051 ft 357 kts 274°
2026-05-07 18:06 41.07359 18.97045 34058 ft 357 kts 274°
2026-05-07 18:06 41.07807 18.90513 34251 ft 356 kts 273°
2026-05-07 18:06 41.08030 18.87223 34486 ft 354 kts 273°
2026-05-07 18:07 41.08245 18.83991 34578 ft 354 kts 274°
2026-05-07 18:07 41.08686 18.77514 34713 ft 355 kts 273°
2026-05-07 18:07 41.08905 18.74272 34839 ft 354 kts 273°
2026-05-07 18:08 41.09118 18.71032 34959 ft 353 kts 274°
2026-05-07 18:08 41.09549 18.64580 35025 ft 354 kts 274°
2026-05-07 18:09 41.09978 18.58092 35030 ft 352 kts 274°
2026-05-07 18:09 41.10401 18.51640 35040 ft 352 kts 273°
2026-05-07 18:10 41.10815 18.45203 35043 ft 352 kts 273°
2026-05-07 18:10 41.11233 18.38753 35039 ft 353 kts 272°
2026-05-07 18:11 41.11643 18.32292 35037 ft 352 kts 272°
2026-05-07 18:11 41.12050 18.25870 35026 ft 352 kts 272°
2026-05-07 18:12 41.12457 18.19376 35027 ft 354 kts 272°
2026-05-07 18:12 41.12860 18.12896 35022 ft 353 kts 271°
2026-05-07 18:13 41.13253 18.06446 35029 ft 353 kts 272°
2026-05-07 18:13 41.13644 17.99995 35024 ft 352 kts 272°
2026-05-07 18:14 41.14037 17.93501 35030 ft 351 kts 272°
2026-05-07 18:14 41.14420 17.87078 35028 ft 352 kts 272°
2026-05-07 18:15 41.14805 17.80564 35028 ft 354 kts 272°
2026-05-07 18:15 41.15184 17.74096 35020 ft 353 kts 272°
2026-05-07 18:16 41.15557 17.67607 35018 ft 355 kts 272°
2026-05-07 18:16 41.15937 17.61062 35022 ft 355 kts 272°
2026-05-07 18:17 41.16306 17.54567 35023 ft 354 kts 271°
2026-05-07 18:17 41.16669 17.48075 35014 ft 355 kts 271°
2026-05-07 18:18 41.17033 17.41522 35020 ft 357 kts 271°
2026-05-07 18:18 41.17389 17.34993 35014 ft 355 kts 272°
2026-05-07 18:19 41.17748 17.28461 35024 ft 356 kts 271°
2026-05-07 18:19 41.18075 17.21920 35009 ft 357 kts 270°
2026-05-07 18:20 41.18071 17.15315 35015 ft 357 kts 266°
2026-05-07 18:20 41.17646 17.08792 35005 ft 357 kts 262°
2026-05-07 18:21 41.16987 17.02236 35015 ft 357 kts 262°
2026-05-07 18:21 41.16323 16.95716 35005 ft 357 kts 262°
2026-05-07 18:22 41.15639 16.89206 35010 ft 356 kts 263°
2026-05-07 18:22 41.14966 16.82698 34989 ft 357 kts 262°
2026-05-07 18:23 41.14544 16.76198 34993 ft 357 kts 266°
2026-05-07 18:23 41.14497 16.69610 35002 ft 360 kts 268°
2026-05-07 18:24 41.14508 16.62977 34986 ft 359 kts 269°
2026-05-07 18:24 41.14523 16.56397 34985 ft 359 kts 268°
2026-05-07 18:25 41.14531 16.49785 34983 ft 360 kts 268°
2026-05-07 18:25 41.14540 16.43161 34961 ft 360 kts 269°
2026-05-07 18:26 41.14549 16.36515 34975 ft 361 kts 268°
2026-05-07 18:26 41.14550 16.29873 34973 ft 361 kts 268°
2026-05-07 18:27 41.14555 16.23238 34973 ft 361 kts 267°
2026-05-07 18:27 41.14548 16.16600 34955 ft 361 kts 268°
2026-05-07 18:28 41.14543 16.09959 34959 ft 361 kts 267°
2026-05-07 18:28 41.14532 16.03315 34951 ft 362 kts 267°
2026-05-07 18:29 41.14511 15.96598 34947 ft 363 kts 268°
2026-05-07 18:29 41.14490 15.89938 34951 ft 362 kts 268°
2026-05-07 18:30 41.14471 15.83276 34953 ft 363 kts 267°
2026-05-07 18:30 41.14448 15.76571 34952 ft 363 kts 268°
2026-05-07 18:31 41.14419 15.69896 34948 ft 365 kts 268°
2026-05-07 18:31 41.14382 15.63213 34956 ft 364 kts 267°
2026-05-07 18:32 41.14346 15.56528 34952 ft 364 kts 267°
2026-05-07 18:32 41.14298 15.49799 34963 ft 364 kts 268°
2026-05-07 18:33 41.14253 15.43128 34977 ft 364 kts 267°
2026-05-07 18:33 41.14207 15.36407 34959 ft 366 kts 267°
2026-05-07 18:34 41.14149 15.29653 34970 ft 366 kts 267°
2026-05-07 18:34 41.14089 15.22882 34981 ft 366 kts 267°
2026-05-07 18:35 41.14034 15.16152 34965 ft 367 kts 266°
2026-05-07 18:35 41.13963 15.09397 34986 ft 368 kts 267°
2026-05-07 18:36 41.13892 15.02647 34965 ft 367 kts 266°
2026-05-07 18:36 41.13821 14.95867 34987 ft 368 kts 266°
2026-05-07 18:37 41.13740 14.89093 34979 ft 369 kts 267°
2026-05-07 18:37 41.13657 14.82300 34977 ft 368 kts 266°
2026-05-07 18:38 41.13573 14.75566 34961 ft 368 kts 266°
2026-05-07 18:38 41.13482 14.68780 34956 ft 370 kts 266°
2026-05-07 18:39 41.13390 14.61993 34960 ft 369 kts 266°
2026-05-07 18:39 41.13289 14.55160 34946 ft 369 kts 266°
2026-05-07 18:40 41.13186 14.48373 34945 ft 370 kts 265°
2026-05-07 18:40 41.13073 14.41512 34938 ft 371 kts 266°
2026-05-07 18:41 41.12969 14.34722 34928 ft 370 kts 265°
2026-05-07 18:41 41.12849 14.27892 34926 ft 371 kts 266°
2026-05-07 18:42 41.12733 14.21062 34934 ft 372 kts 265°
2026-05-07 18:42 41.12613 14.14200 34931 ft 374 kts 265°
2026-05-07 18:43 41.12481 14.07329 34921 ft 373 kts 265°
2026-05-07 18:43 41.12349 14.00456 34916 ft 376 kts 265°
2026-05-07 18:44 41.12216 13.93541 34930 ft 375 kts 265°
2026-05-07 18:44 41.12071 13.86632 34924 ft 376 kts 266°
2026-05-07 18:45 41.11924 13.79693 34918 ft 376 kts 265°
2026-05-07 18:45 41.11776 13.72807 34912 ft 376 kts 265°
2026-05-07 18:46 41.11622 13.65908 34920 ft 376 kts 265°
2026-05-07 18:46 41.11463 13.58922 34921 ft 378 kts 265°
2026-05-07 18:47 41.11302 13.51994 34923 ft 377 kts 265°
2026-05-07 18:47 41.11136 13.45054 34927 ft 380 kts 265°
2026-05-07 18:48 41.10963 13.38076 34934 ft 378 kts 265°
2026-05-07 18:48 41.10784 13.31087 34927 ft 378 kts 264°
2026-05-07 18:49 41.10607 13.24136 34926 ft 378 kts 264°
2026-05-07 18:49 41.10421 13.17188 34932 ft 380 kts 265°
2026-05-07 18:50 41.10234 13.10195 34925 ft 381 kts 264°
2026-05-07 18:50 41.10041 13.03211 34933 ft 382 kts 265°
2026-05-07 18:51 41.09843 12.96171 34931 ft 383 kts 264°
2026-05-07 18:51 41.09639 12.89154 34924 ft 382 kts 264°
2026-05-07 18:52 41.09436 12.82150 34924 ft 382 kts 264°
2026-05-07 18:52 41.09223 12.75130 34933 ft 383 kts 264°
2026-05-07 18:53 41.09007 12.68103 34927 ft 383 kts 265°
2026-05-07 18:53 41.08789 12.61085 34928 ft 382 kts 264°
2026-05-07 18:54 41.08563 12.54087 34934 ft 383 kts 264°
2026-05-07 18:54 41.08333 12.47036 34926 ft 383 kts 264°
2026-05-07 18:55 41.08103 12.40031 34921 ft 383 kts 265°
2026-05-07 18:55 41.07865 12.32967 34880 ft 383 kts 263°
2026-05-07 18:55 41.07747 12.29486 35015 ft 384 kts 264°
2026-05-07 18:56 41.07624 12.25966 34908 ft 384 kts 263°
2026-05-07 18:56 41.07377 12.18882 34924 ft 385 kts 263°
2026-05-07 18:57 41.07132 12.11950 34917 ft 384 kts 264°
2026-05-07 18:57 41.06874 12.04912 34921 ft 384 kts 264°
2026-05-07 18:58 41.06615 11.97842 34925 ft 385 kts 264°
2026-05-07 18:58 41.06352 11.90791 34925 ft 385 kts 263°
2026-05-07 18:59 41.06082 11.83711 34936 ft 385 kts 263°
2026-05-07 18:59 41.05809 11.76658 34940 ft 385 kts 264°
2026-05-07 19:00 41.05533 11.69622 34936 ft 385 kts 263°
2026-05-07 19:00 41.05250 11.62516 34942 ft 388 kts 263°
2026-05-07 19:01 41.04963 11.55415 34942 ft 388 kts 263°
2026-05-07 19:01 41.04673 11.48304 34943 ft 389 kts 263°
2026-05-07 19:02 41.04391 11.41163 34942 ft 389 kts 263°
2026-05-07 19:02 41.04133 11.34022 34944 ft 388 kts 263°
2026-05-07 19:03 41.03861 11.26936 34940 ft 389 kts 263°
2026-05-07 19:03 41.03580 11.19748 34939 ft 390 kts 263°
2026-05-07 19:04 41.03292 11.12638 34947 ft 391 kts 263°
2026-05-07 19:04 41.02997 11.05495 34947 ft 391 kts 263°
2026-05-07 19:05 41.02697 10.98318 34943 ft 391 kts 262°
2026-05-07 19:05 41.02394 10.91137 34946 ft 392 kts 262°
2026-05-07 19:06 41.02083 10.83919 34947 ft 392 kts 263°
2026-05-07 19:06 41.01611 10.73140 34949 ft 394 kts 262°
2026-05-07 19:07 41.01289 10.65925 34940 ft 394 kts 262°
2026-05-07 19:07 41.00962 10.58700 34940 ft 394 kts 262°
2026-05-07 19:08 41.00629 10.51473 34945 ft 394 kts 262°
2026-05-07 19:08 41.00292 10.44239 34947 ft 394 kts 262°
2026-05-07 19:09 40.99955 10.37054 34951 ft 395 kts 262°
2026-05-07 19:09 40.99609 10.29833 34937 ft 395 kts 262°
2026-05-07 19:10 40.99261 10.22599 34948 ft 394 kts 262°
2026-05-07 19:10 40.98906 10.15367 34962 ft 395 kts 261°
2026-05-07 19:11 40.98546 10.08131 34958 ft 396 kts 261°
2026-05-07 19:11 40.98182 10.00900 34961 ft 397 kts 262°
2026-05-07 19:12 40.97811 9.93619 34961 ft 397 kts 261°
2026-05-07 19:12 40.97437 9.86358 34968 ft 397 kts 261°
2026-05-07 19:13 40.97057 9.79080 34964 ft 398 kts 262°
2026-05-07 19:13 40.96672 9.71781 34966 ft 399 kts 261°
2026-05-07 19:14 40.96282 9.64489 34962 ft 399 kts 262°
2026-05-07 19:14 40.95888 9.57180 34965 ft 400 kts 261°
2026-05-07 19:15 40.95486 9.49829 34967 ft 401 kts 261°
2026-05-07 19:15 40.95079 9.42505 34968 ft 401 kts 261°
2026-05-07 19:16 40.94669 9.35195 34965 ft 401 kts 261°
2026-05-07 19:16 40.94253 9.27874 34968 ft 400 kts 261°
2026-05-07 19:17 40.93836 9.20568 34974 ft 402 kts 261°
2026-05-07 19:17 40.93408 9.13214 34975 ft 402 kts 261°
2026-05-07 19:18 40.92976 9.05859 34972 ft 403 kts 261°
2026-05-07 19:18 40.92540 8.98486 34970 ft 404 kts 261°
2026-05-07 19:19 40.92099 8.91089 34971 ft 404 kts 261°
2026-05-07 19:19 40.91653 8.83719 34969 ft 404 kts 261°
2026-05-07 19:20 40.91199 8.76348 34956 ft 404 kts 261°
2026-05-07 19:20 40.90743 8.68970 34950 ft 404 kts 260°
2026-05-07 19:21 40.90282 8.61595 34951 ft 405 kts 261°
2026-05-07 19:21 40.89814 8.54186 34946 ft 405 kts 261°
2026-05-07 19:22 40.89344 8.46816 34947 ft 406 kts 261°
2026-05-07 19:22 40.88864 8.39378 34945 ft 406 kts 260°
2026-05-07 19:23 40.88380 8.31967 34949 ft 406 kts 260°
2026-05-07 19:23 40.87895 8.24575 34948 ft 407 kts 260°
2026-05-07 19:24 40.87399 8.17160 34947 ft 406 kts 260°
2026-05-07 19:24 40.86898 8.09730 34948 ft 408 kts 260°
2026-05-07 19:25 40.86515 8.02287 34947 ft 410 kts 263°
2026-05-07 19:25 40.86645 7.94712 34944 ft 414 kts 268°
2026-05-07 19:26 40.87148 7.87148 34944 ft 415 kts 269°
2026-05-07 19:26 40.87666 7.79600 34949 ft 416 kts 269°
2026-05-07 19:27 40.88180 7.72010 34951 ft 415 kts 270°
2026-05-07 19:27 40.88692 7.64414 34946 ft 416 kts 270°
2026-05-07 19:28 40.89196 7.56834 34950 ft 416 kts 270°
2026-05-07 19:28 40.89695 7.49264 34951 ft 415 kts 270°
2026-05-07 19:29 40.90189 7.41695 34950 ft 417 kts 270°
2026-05-07 19:29 40.90683 7.34040 34945 ft 417 kts 269°
2026-05-07 19:30 40.91167 7.26452 34947 ft 417 kts 270°
2026-05-07 19:30 40.91650 7.18825 34948 ft 417 kts 269°
2026-05-07 19:31 40.92126 7.11233 34945 ft 417 kts 269°
2026-05-07 19:31 40.92596 7.03622 34953 ft 417 kts 269°
2026-05-07 19:32 40.93062 6.96017 34943 ft 417 kts 269°
2026-05-07 19:32 40.93525 6.88381 34945 ft 418 kts 269°
2026-05-07 19:33 40.93982 6.80749 34948 ft 419 kts 269°
2026-05-07 19:33 40.94437 6.73068 34948 ft 419 kts 270°
2026-05-07 19:34 40.94885 6.65415 34955 ft 419 kts 269°
2026-05-07 19:34 40.95330 6.57755 34951 ft 420 kts 269°
2026-05-07 19:35 40.95768 6.50085 34946 ft 420 kts 269°
2026-05-07 19:35 40.96203 6.42418 34962 ft 420 kts 269°
2026-05-07 19:36 40.96633 6.34703 34964 ft 420 kts 269°
2026-05-07 19:36 40.97152 6.26955 34966 ft 423 kts 271°
2026-05-07 19:37 40.97828 6.19284 34956 ft 422 kts 271°
2026-05-07 19:37 40.98489 6.11552 34962 ft 422 kts 271°
2026-05-07 19:38 40.99124 6.03881 34962 ft 423 kts 271°
2026-05-07 19:38 40.99756 5.96097 34965 ft 424 kts 270°
2026-05-07 19:39 41.00378 5.88330 34979 ft 424 kts 270°
2026-05-07 19:39 41.00994 5.80580 34965 ft 424 kts 270°
2026-05-07 19:40 41.01604 5.72842 34970 ft 425 kts 270°
2026-05-07 19:40 41.02211 5.65069 34970 ft 425 kts 270°
2026-05-07 19:41 41.02811 5.57304 34968 ft 426 kts 270°
2026-05-07 19:41 41.03406 5.49543 34972 ft 425 kts 270°
2026-05-07 19:42 41.03993 5.41798 34971 ft 425 kts 270°
2026-05-07 19:42 41.04579 5.33998 34973 ft 426 kts 269°
2026-05-07 19:43 41.05158 5.26219 34970 ft 425 kts 269°
2026-05-07 19:43 41.05731 5.18477 34968 ft 425 kts 270°
2026-05-07 19:44 41.06303 5.10658 34968 ft 425 kts 269°
2026-05-07 19:44 41.06865 5.02923 34966 ft 425 kts 269°
2026-05-07 19:45 41.07424 4.95123 34968 ft 427 kts 269°
2026-05-07 19:45 41.07978 4.87335 34964 ft 427 kts 269°
2026-05-07 19:46 41.08530 4.79509 34967 ft 427 kts 269°
2026-05-07 19:46 41.09076 4.71678 34965 ft 427 kts 269°
2026-05-07 19:47 41.09615 4.63875 34964 ft 427 kts 269°
2026-05-07 19:47 41.10151 4.56045 34964 ft 426 kts 269°
2026-05-07 19:48 41.10677 4.48236 34964 ft 427 kts 269°
2026-05-07 19:48 41.11201 4.40426 34966 ft 428 kts 269°
2026-05-07 19:49 41.11721 4.32545 34922 ft 425 kts 268°
2026-05-07 19:49 41.11979 4.28669 34597 ft 422 kts 268°
2026-05-07 19:49 41.12230 4.24819 33875 ft 422 kts 268°
2026-05-07 19:50 41.12475 4.21001 33177 ft 422 kts 268°
2026-05-07 19:50 41.12724 4.17132 32382 ft 424 kts 268°
2026-05-07 19:50 41.12973 4.13219 31507 ft 427 kts 269°
2026-05-07 19:50 41.13220 4.09306 30613 ft 431 kts 269°
2026-05-07 19:51 41.13470 4.05333 29709 ft 434 kts 269°
2026-05-07 19:51 41.13718 4.01402 28761 ft 439 kts 270°
2026-05-07 19:51 41.13973 3.97339 27791 ft 443 kts 270°
2026-05-07 19:51 41.14225 3.93300 26863 ft 446 kts 270°
2026-05-07 19:52 41.14482 3.89167 25916 ft 449 kts 271°
2026-05-07 19:52 41.14735 3.85039 24950 ft 453 kts 271°
2026-05-07 19:52 41.14987 3.80953 24183 ft 450 kts 271°
2026-05-07 19:52 41.14898 3.76881 23783 ft 433 kts 258°
2026-05-07 19:53 41.14120 3.73135 23568 ft 415 kts 245°
2026-05-07 19:53 41.12838 3.69773 23358 ft 399 kts 238°
2026-05-07 19:53 41.11493 3.66630 23147 ft 387 kts 238°
2026-05-07 19:53 41.10179 3.63592 22945 ft 376 kts 238°
2026-05-07 19:54 41.08907 3.60645 22742 ft 365 kts 238°
2026-05-07 19:54 41.07668 3.57775 22453 ft 358 kts 238°
2026-05-07 19:54 41.06439 3.54920 21977 ft 356 kts 238°
2026-05-07 19:54 41.05217 3.52079 21460 ft 355 kts 239°
2026-05-07 19:55 41.03999 3.49248 20999 ft 353 kts 239°
2026-05-07 19:55 41.02788 3.46432 20736 ft 352 kts 239°
2026-05-07 19:55 41.01574 3.43607 20518 ft 353 kts 239°
2026-05-07 19:55 41.00365 3.40794 20266 ft 352 kts 239°
2026-05-07 19:56 40.99158 3.37989 20015 ft 351 kts 240°
2026-05-07 19:56 40.97964 3.35176 19757 ft 350 kts 243°
2026-05-07 19:56 40.97314 3.32098 19474 ft 351 kts 267°
2026-05-07 19:56 40.97581 3.28883 19244 ft 352 kts 278°
2026-05-07 19:57 40.97969 3.25698 18992 ft 350 kts 277°
2026-05-07 19:57 40.98321 3.22549 18744 ft 349 kts 277°
2026-05-07 19:57 40.98649 3.19368 18494 ft 348 kts 277°
2026-05-07 19:57 40.98955 3.16229 18246 ft 346 kts 277°
2026-05-07 19:58 40.99252 3.13079 17995 ft 343 kts 276°
2026-05-07 19:58 40.99536 3.09979 17750 ft 341 kts 276°
2026-05-07 19:58 40.99817 3.06864 17502 ft 341 kts 276°
2026-05-07 19:58 41.00095 3.03748 17254 ft 340 kts 276°
2026-05-07 19:59 41.00370 3.00645 16998 ft 339 kts 276°
2026-05-07 19:59 41.00639 2.97574 16749 ft 339 kts 276°
2026-05-07 19:59 41.00911 2.94464 16499 ft 338 kts 276°
2026-05-07 19:59 41.01178 2.91393 16256 ft 338 kts 276°
2026-05-07 20:00 41.01447 2.88302 16003 ft 336 kts 276°
2026-05-07 20:00 41.01709 2.85261 15752 ft 336 kts 276°
2026-05-07 20:00 41.01975 2.82182 15505 ft 335 kts 276°
2026-05-07 20:00 41.02238 2.79110 15251 ft 335 kts 277°
2026-05-07 20:01 41.02499 2.76060 15004 ft 333 kts 277°
2026-05-07 20:01 41.02758 2.73023 14751 ft 332 kts 277°
2026-05-07 20:01 41.03013 2.70022 14505 ft 332 kts 277°
2026-05-07 20:01 41.03269 2.67000 14256 ft 331 kts 277°
2026-05-07 20:02 41.03525 2.63983 14008 ft 331 kts 277°
2026-05-07 20:02 41.03779 2.60972 13759 ft 330 kts 277°
2026-05-07 20:02 41.04032 2.57958 13511 ft 330 kts 277°
2026-05-07 20:02 41.04285 2.54927 13260 ft 329 kts 277°
2026-05-07 20:03 41.04534 2.51938 13015 ft 328 kts 277°
2026-05-07 20:03 41.04785 2.48925 12765 ft 328 kts 277°
2026-05-07 20:03 41.05032 2.45928 12515 ft 327 kts 277°
2026-05-07 20:03 41.05278 2.42955 12268 ft 326 kts 277°
2026-05-07 20:04 41.05521 2.39999 11996 ft 325 kts 277°
2026-05-07 20:04 41.05764 2.37033 11698 ft 323 kts 277°
2026-05-07 20:04 41.06005 2.34076 11398 ft 323 kts 277°
2026-05-07 20:04 41.06247 2.31114 11096 ft 322 kts 276°
2026-05-07 20:05 41.06484 2.28183 10799 ft 319 kts 276°
2026-05-07 20:05 41.06718 2.25289 10518 ft 314 kts 276°
2026-05-07 20:05 41.06946 2.22448 10268 ft 308 kts 276°
2026-05-07 20:05 41.07066 2.19626 10013 ft 303 kts 271°
2026-05-07 20:06 41.07036 2.16885 9768 ft 299 kts 269°
2026-05-07 20:06 41.06978 2.14143 9515 ft 294 kts 269°
2026-05-07 20:06 41.06916 2.11481 9266 ft 289 kts 269°
2026-05-07 20:06 41.06854 2.08828 9012 ft 284 kts 269°
2026-05-07 20:07 41.06795 2.06232 8762 ft 281 kts 269°
2026-05-07 20:07 41.06737 2.03678 8518 ft 281 kts 269°
2026-05-07 20:07 41.06678 2.01090 8269 ft 280 kts 269°
2026-05-07 20:07 41.06620 1.98498 8020 ft 279 kts 269°
2026-05-07 20:08 41.06563 1.95966 7770 ft 277 kts 269°
2026-05-07 20:08 41.06504 1.93424 7519 ft 273 kts 269°
2026-05-07 20:08 41.06456 1.90943 7267 ft 269 kts 272°
2026-05-07 20:08 41.06596 1.88619 7027 ft 265 kts 278°
2026-05-07 20:09 41.06839 1.86232 6784 ft 263 kts 278°
2026-05-07 20:09 41.07087 1.83820 6535 ft 262 kts 278°
2026-05-07 20:09 41.07312 1.81445 6285 ft 261 kts 277°
2026-05-07 20:10 41.07723 1.76686 5839 ft 259 kts 277°
2026-05-07 20:10 41.07917 1.74340 5618 ft 257 kts 276°
2026-05-07 20:10 41.08110 1.71991 5391 ft 252 kts 276°
2026-05-07 20:10 41.08287 1.69721 5160 ft 249 kts 273°
2026-05-07 20:11 41.08165 1.67441 4932 ft 245 kts 257°
2026-05-07 20:11 41.07632 1.65340 4733 ft 239 kts 245°
2026-05-07 20:11 41.06977 1.63352 4547 ft 234 kts 251°
2026-05-07 20:11 41.06853 1.61238 4342 ft 230 kts 283°
2026-05-07 20:12 41.07483 1.59343 4160 ft 222 kts 310°
2026-05-07 20:12 41.08617 1.58042 3976 ft 213 kts 335°
2026-05-07 20:12 41.09937 1.57306 3795 ft 205 kts 352°
2026-05-07 20:12 41.11313 1.57386 3598 ft 193 kts 22°
2026-05-07 20:13 41.12422 1.58269 3465 ft 184 kts 48°
2026-05-07 20:13 41.13105 1.59629 3342 ft 172 kts 66°
2026-05-07 20:13 41.13628 1.61037 3164 ft 169 kts 65°
2026-05-07 20:13 41.14151 1.62422 3008 ft 168 kts 65°
2026-05-07 20:14 41.14667 1.63810 2993 ft 168 kts 66°
2026-05-07 20:14 41.15177 1.65211 2984 ft 168 kts 66°
2026-05-07 20:14 41.15676 1.66610 2982 ft 168 kts 66°
2026-05-07 20:14 41.16172 1.68024 2981 ft 168 kts 66°
2026-05-07 20:15 41.16662 1.69439 2982 ft 168 kts 67°
2026-05-07 20:15 41.17146 1.70857 2980 ft 169 kts 67°
2026-05-07 20:15 41.17624 1.72267 2978 ft 169 kts 68°
2026-05-07 20:15 41.18102 1.73684 2979 ft 168 kts 68°
2026-05-07 20:16 41.18579 1.75103 2980 ft 168 kts 68°
2026-05-07 20:16 41.19054 1.76515 2982 ft 168 kts 68°
2026-05-07 20:16 41.19532 1.77940 2980 ft 168 kts 68°
2026-05-07 20:16 41.20012 1.79369 2982 ft 168 kts 68°
2026-05-07 20:17 41.20484 1.80768 2981 ft 168 kts 67°
2026-05-07 20:17 41.20963 1.82189 2978 ft 168 kts 67°
2026-05-07 20:17 41.21442 1.83607 2979 ft 168 kts 67°
2026-05-07 20:17 41.21922 1.85023 2983 ft 168 kts 67°
2026-05-07 20:18 41.22401 1.86437 2983 ft 168 kts 67°
2026-05-07 20:18 41.22882 1.87851 2982 ft 168 kts 66°
2026-05-07 20:18 41.23361 1.89260 2852 ft 164 kts 66°
2026-05-07 20:18 41.23810 1.90575 2650 ft 150 kts 67°
2026-05-07 20:19 41.24223 1.91787 2462 ft 141 kts 67°
2026-05-07 20:19 41.24625 1.92965 2274 ft 139 kts 67°
2026-05-07 20:19 41.25022 1.94130 2092 ft 138 kts 67°
2026-05-07 20:19 41.25419 1.95295 1908 ft 138 kts 67°
2026-05-07 20:20 41.25816 1.96460 1728 ft 137 kts 67°
2026-05-07 20:20 41.26210 1.97615 1544 ft 137 kts 67°
2026-05-07 20:20 41.26604 1.98769 1365 ft 137 kts 66°
2026-05-07 20:20 41.26995 1.99913 1189 ft 137 kts 66°
2026-05-07 20:21 41.27392 2.01074 1005 ft 137 kts 67°
2026-05-07 20:21 41.27788 2.02234 824 ft 138 kts 66°
2026-05-07 20:21 41.28183 2.03388 642 ft 137 kts 66°
2026-05-07 20:21 41.28579 2.04541 462 ft 138 kts 65°
2026-05-07 20:22 41.28976 2.05710 282 ft 138 kts 64°
2026-05-07 20:22 41.29374 2.06862 120 ft 138 kts 66°
2026-05-07 20:22 41.29751 2.08035 21 ft 123 kts 67°
2026-05-07 20:22 41.29984 2.08663 19 ft 59 kts 65°
2026-05-07 20:23 41.30131 2.09092 16 ft 36 kts 65°
2026-05-07 20:23 41.30232 2.09382 13 ft 33 kts 66°
2026-05-07 20:23 41.30321 2.09650 13 ft 27 kts 65°
2026-05-07 20:23 41.30323 2.09818 13 ft 15 kts 149°
2026-05-07 20:24 41.30239 2.09871 13 ft 12 kts 155°
2026-05-07 20:24 41.30153 2.09912 13 ft 13 kts 180°
2026-05-07 20:24 41.30092 2.09835 13 ft 13 kts 245°
2026-05-07 20:24 41.30054 2.09719 13 ft 13 kts 245°
2026-05-07 20:25 41.30015 2.09600 13 ft 14 kts 247°
2026-05-07 20:25 41.29975 2.09475 14 ft 14 kts 248°
2026-05-07 20:25 41.29932 2.09362 16 ft 13 kts 246°
2026-05-07 20:25 41.29897 2.09248 16 ft 13 kts 249°
2026-05-07 20:26 41.29857 2.09131 16 ft 14 kts 245°
2026-05-07 20:26 41.29813 2.09009 16 ft 14 kts 243°
2026-05-07 20:26 41.29768 2.08885 16 ft 15 kts 246°
2026-05-07 20:26 41.29724 2.08754 16 ft 15 kts 246°
2026-05-07 20:27 41.29679 2.08619 16 ft 15 kts 243°
2026-05-07 20:27 41.29631 2.08483 16 ft 16 kts 247°
2026-05-07 20:27 41.29588 2.08350 18 ft 15 kts 247°
2026-05-07 20:27 41.29505 2.08294 16 ft 16 kts 157°
2026-05-07 20:28 41.29402 2.08358 15 ft 16 kts 156°
2026-05-07 20:28 41.29292 2.08423 14 ft 17 kts 155°
2026-05-07 20:28 41.29176 2.08432 13 ft 17 kts 198°
2026-05-07 20:28 41.29069 2.08381 13 ft 13 kts 214°
2026-05-07 20:29 41.29019 2.08266 13 ft 15 kts 246°
2026-05-07 20:29 41.28990 2.08160 13 ft 4 kts 276°
2026-05-07 20:29 41.29013 2.08132 13 ft 5 kts 344°
2026-05-07 20:29 41.29043 2.08119 13 ft 2 kts 338°
2026-05-07 20:30 41.29051 2.08114 13 ft 0 kts 335°